Tracking 31011 objects as of 12-Jul-2025
HD Live streaming from Space Station
objects crossing your sky now

CZ-6A DEB

Track CZ-6A DEB now!
10-day predictions


NORAD ID: 58430
Int'l Code: 2022-151AHY
Perigee: 801.5 km
Apogee: 926.2 km
Inclination: 98.9 °
Period: 102.1 minutes
Semi major axis: 7234 km
RCS: Unknown
Launch date: November 11, 2022
Source: People's Republic of China (PRC)
Launch site: Taiyaun Space Center, China (TSC)

Note: This is SATELLITE DEBRIS
Your satellite tracking list
Your tracking list is empty




NASA's NSSDC Master Catalog

Two Line Element Set (TLE):
1 58430U 22151AHY 25190.42039720  .00002898  00000-0  15880-2 0  9996
2 58430  98.8869 186.0274 0086225 260.5137  98.6280 14.10775541 30501
Source of the keplerian elements: AFSPC